Probability
0 3 7 8 5 3 2 1 1 2 3 5 6 8 10 10 9 7 5 4 4 4 2 1 0 0 0 0 0 0 0 0 0 0 0 0 0 0 0 0 0 0 0
1 3 5 5 3 1 1 0 0 1 2 4 5 6 7 9 9 7 6 6 6 5 4 2 1 1 0 0 0 0 0 0 0 0 0 0 0 0 0 0 0 0 0
1 2 3 2 1 0 0 0 0 0 0 1 2 2 4 7 7 5 5 7 7 6 4 4 3 2 1 0 0 0 0 0 0 0 0 0 0 0 0 0 0 0 0
1 2 1 0 0 0 0 0 0 0 0 0 0 0 1 3 4 3 2 3 4 3 3 4 4 2 1 0 0 0 1 0 0 0 0 0 0 0 0 0 0 0 0
1 1 1 0 0 0 0 0 0 0 0 0 0 0 0 1 1 1 1 1 1 2 2 2 2 1 0 0 0 0 1 1 1 0 0 0 0 0 0 0 0 0 0
0 0 0 0 0 0 0 0 0 0 0 0 0 0 0 0 1 1 1 1 1 2 2 2 1 1 0 0 0 0 1 2 2 1 0 0 0 0 0 0 0 0 0
0 0 0 0 0 0 0 0 0 0 0 0 0 0 0 0 1 2 1 1 1 2 1 1 1 1 1 0 0 0 1 2 2 1 0 0 0 0 0 0 0 0 0
0 0 0 0 0 0 0 0 0 0 0 0 0 0 0 0 0 1 1 0 0 1 0 0 1 1 1 0 0 1 1 1 1 1 0 0 0 0 0 0 0 0 0
0 0 0 0 0 0 0 0 0 0 0 0 0 0 0 0 0 0 0 0 0 1 0 0 1 1 0 0 0 1 0 0 0 0 0 0 0 0 0 0 0 0 0
0 0 0 0 0 0 0 0 0 0 0 0 0 0 0 0 0 0 0 0 0 0 0 0 0 0 0 0 0 0 0 0 0 0 0 0 0 0 0 0 0 0 0
0 0 0 0 0 0 0 0 0 0 0 0 0 0 0 0 0 0 0 0 0 0 0 0 0 0 0 0 0 0 0 0 0 0 0 0 0 0 0 0 0 0 0
0 0 0 0 0 0 0 0 0 0 0 0 0 0 0 0 0 0 0 0 0 0 0 0 0 0 0 0 0 0 0 0 0 0 0 0 0 0 0 0 0 0 0
0 0 0 0 0 0 0 0 0 0 0 0 0 0 0 0 0 0 0 0 0 0 0 0 0 0 0 0 0 0 0 0 0 0 0 0 0 0 0 0 0 0 0
0 0 0 0 0 0 0 0 0 0 0 0 0 0 0 0 0 0 0 0 0 0 0 0 0 0 0 0 0 0 0 0 0 0 0 0 0 0 0 0 0 0 0
0 0 0 0 0 0 0 0 0 0 0 0 0 0 0 0 0 0 0 0 0 0 0 0 0 0 0 0 0 0 0 0 0 0 0 0 0 0 0 0 0 0 0
0 0 0 0 0 0 0 0 0 0 0 0 0 0 0 0 0 0 0 0 0 0 0 0 0 0 0 0 0 0 0 0 0 0 0 0 0 0 0 0 0 0 0
0 0 0 0 0 0 0 0 0 0 0 0 0 0 0 0 0 0 0 0 0 0 0 0 0 0 0 0 0 0 0 0 0 0 0 0 0 0 0 0 0 0 0
0 0 0 0 0 0 0 0 0 0 0 0 0 0 0 0 0 0 0 0 0 0 0 0 0 0 0 0 0 0 0 0 0 0 0 0 0 0 0 0 0 0 0
0 0 0 0 0 0 0 0 0 0 0 0 0 0 0 0 0 0 0 0 0 0 0 0 0 0 0 0 0 0 0 0 0 0 0 0 0 0 0 0 0 0 0
0 0 0 0 0 0 0 0 0 0 0 0 0 0 0 0 0 0 0 0 0 0 0 0 0 0 0 0 0 0 0 0 0 0 0 0 0 0 0 0 0 0 0
0 0 0 0 0 0 0 0 0 0 0 0 0 0 0 0 0 0 0 0 0 0 0 0 0 0 0 0 0 0 0 0 0 0 0 0 0 0 0 0 0 0 0
0 0 0 0 0 0 0 0 0 0 0 0 0 0 0 0 0 0 0 0 0 0 0 0 0 0 0 0 0 0 0 0 0 0 0 0 0 0 0 0 0 0 0
0 0 0 0 0 0 0 0 0 0 0 0 0 0 0 0 0 0 0 0 0 0 0 0 0 0 0 0 0 0 0 0 0 0 0 0 0 0 0 0 0 0 0
0 0 0 0 0 0 0 0 0 0 0 0 0 0 0 0 0 0 0 0 0 0 0 0 0 0 0 0 0 0 0 0 0 0 0 0 0 0 0 0 0 0 0
0 0 0 0 0 0 0 0 0 0 0 0 0 0 0 0 0 0 0 0 0 0 0 0 0 0 0 0 0 0 0 0 0 0 0 0 0 0 0 0 0 0 0
0 0 0 0 0 0 0 0 0 0 0 0 0 0 0 0 0 0 0 0 0 0 0 0 0 0 0 0 0 0 0 0 0 0 0 0 0 0 0 0 0 0 0
Wind_Speed
6 5 5 5 4 4 4 4 4 5 4 3 4 4 5 5 4 4 6 6 6 7 6 5 5 5 5 5 5 4 4 2 2 2 1 1 2 2 2 2 2 2 2
5 4 4 4 4 5 5 5 5 5 5 4 3 3 4 3 4 4 5 6 6 6 5 5 5 5 4 6 5 4 3 2 3 3 2 1 1 1 2 2 2 2 2
5 5 5 4 4 4 4 4 5 5 5 5 3 3 2 2 2 3 4 5 6 6 6 6 5 5 5 5 5 5 5 4 3 3 3 3 3 1 1 2 2 2 2
4 4 4 4 5 5 4 4 4 4 5 5 4 5 4 4 4 4 4 4 5 5 6 6 6 6 5 5 5 5 4 5 4 2 2 2 2 3 1 1 1 2 2
3 3 3 3 4 4 3 3 3 4 4 4 5 5 5 4 3 4 4 4 4 5 5 6 5 5 4 5 5 4 4 4 4 3 2 1 1 1 3 2 1 1 1
3 3 3 4 3 3 3 3 4 3 3 3 4 5 6 6 6 5 5 4 3 3 4 4 4 5 4 5 5 4 5 4 4 3 3 3 3 2 3 3 2 2 1
4 5 6 5 4 3 2 2 3 2 2 3 3 5 5 6 6 6 5 5 4 3 5 5 4 4 4 5 5 4 4 4 4 3 3 2 2 2 2 3 2 2 1
7 7 7 6 5 4 3 3 3 2 1 2 1 1 2 3 3 3 4 5 4 4 5 5 5 5 5 5 5 4 4 4 4 4 3 2 2 2 2 3 3 2 1
9 8 8 7 6 6 5 4 4 3 2 2 1 1 1 1 2 2 3 3 3 4 5 5 6 6 6 6 6 4 5 5 5 5 4 3 2 2 2 2 3 4 3
9 9 8 8 8 7 6 6 6 5 4 3 2 1 0 1 1 2 3 3 3 4 6 6 6 6 6 6 6 5 5 6 5 4 5 4 3 3 3 2 2 2 3
8 8 7 7 7 7 7 7 6 6 5 4 3 2 2 1 1 2 2 3 4 5 5 5 6 6 6 6 6 6 6 6 6 5 6 5 5 4 3 3 2 2 2
8 8 7 7 8 8 8 8 7 7 6 5 4 3 3 2 1 0 1 1 2 4 5 5 5 6 6 7 7 7 7 7 7 7 7 6 5 5 4 4 3 3 2
8 8 8 8 8 8 8 8 7 7 6 6 6 5 4 3 3 2 1 1 1 2 3 4 5 6 6 6 6 7 7 7 7 7 8 7 7 6 5 5 4 3 2
8 8 8 8 8 8 8 8 7 7 6 6 6 5 5 4 4 3 2 1 0 1 2 3 3 4 5 6 6 6 6 6 6 6 7 7 7 7 7 5 5 4 3
8 8 8 7 7 7 7 7 7 6 6 5 5 5 5 4 4 4 3 2 1 0 1 2 3 3 4 4 6 6 6 6 6 5 5 6 7 7 7 5 5 5 4
7 7 7 7 7 7 7 7 7 7 6 5 5 5 4 4 4 3 3 2 1 1 1 2 3 4 3 6 8 7 6 6 7 6 5 6 7 8 9 9 8 7 6
6 6 6 5 5 6 6 6 6 6 6 5 5 5 5 4 4 4 3 2 2 1 1 2 3 3 4 8 9 9 6 6 6 7 7 5 6 8 6 7 8 5 5
5 5 5 5 5 4 5 5 5 5 5 5 6 6 6 5 4 4 4 3 2 2 2 2 3 3 5 8 9 9 5 5 5 6 7 7 7 7 8 6 5 4 3
4 4 4 4 4 5 5 5 5 5 5 5 5 6 6 5 5 4 4 4 3 3 3 2 3 3 4 8 10 9 4 4 5 6 7 8 8 12 14 8 7 5 4
3 4 4 4 5 5 5 5 5 5 5 5 5 5 5 5 5 5 5 4 3 3 3 3 3 4 4 8 11 11 5 5 5 5 6 10 11 14 15 8 8 7 5
3 3 4 4 4 5 4 4 4 5 5 5 5 5 5 6 5 5 4 4 4 3 4 4 4 4 6 9 12 13 6 7 6 6 6 6 14 15 15 12 7 9 7
3 3 3 4 4 4 4 4 5 5 5 5 6 6 6 6 5 5 5 4 4 4 4 4 4 4 5 7 11 14 13 10 7 7 6 7 15 15 15 11 10 13 10
3 3 3 4 4 4 4 5 5 5 5 5 6 6 6 6 5 5 5 4 4 4 4 4 4 4 4 6 11 14 14 14 7 6 10 12 15 14 11 13 14 11 6
3 3 4 5 5 5 5 5 6 5 5 6 6 6 6 6 6 5 4 4 4 5 5 5 5 4 4 4 4 6 7 10 9 6 10 15 15 11 10 10 8 5 6
3 3 4 5 6 6 6 6 5 5 6 6 6 6 6 6 6 6 5 6 5 6 7 5 5 5 6 7 9 6 6 6 6 6 5 5 6 7 6 5 5 5 6
4 4 5 6 6 6 6 6 5 5 6 6 6 5 5 5 5 6 6 9 10 13 13 12 10 8 10 11 12 13 13 13 13 9 6 7 7 8 8 8 7 7 7
Wind_Direction
220 197 176 175 175 162 153 170 188 181 168 167 183 179 182 175 171 170 166 172 166 162 159 163 167 164 163 170 170 166 168 169 146 127 175 255 209 167 152 127 102 104 98
203 185 176 168 172 160 164 179 189 182 179 171 179 174 167 173 178 172 171 172 167 163 163 164 170 170 169 174 176 164 162 170 160 154 153 202 288 232 157 127 117 120 118
198 183 175 177 160 148 165 181 183 179 177 167 160 169 164 157 175 178 179 177 171 167 169 171 170 175 174 180 179 171 169 174 180 171 163 171 199 177 177 164 150 144 120
182 173 171 174 159 158 171 176 175 170 168 166 174 180 186 193 192 181 181 173 172 172 173 174 176 179 178 177 176 172 171 165 174 181 185 164 141 141 156 233 178 147 131
155 146 154 152 142 142 163 175 172 169 160 168 191 193 196 201 183 175 172 172 171 176 178 178 180 174 173 174 169 167 169 166 169 168 164 169 125 141 146 193 209 196 174
104 99 90 89 92 113 145 153 160 164 164 175 194 200 199 192 179 176 174 168 165 169 179 179 171 166 169 167 165 164 167 168 164 160 155 153 159 179 171 192 198 198 184
78 79 72 69 69 76 98 129 135 144 162 166 189 195 198 188 180 175 176 169 174 177 186 182 168 167 169 160 154 153 163 164 159 163 166 160 171 150 151 171 186 165 162
59 61 59 60 58 52 48 73 93 96 121 136 163 175 175 175 170 171 176 180 179 177 178 174 169 170 170 163 157 155 167 165 159 165 165 157 166 143 152 158 153 163 216
55 54 48 46 45 44 37 35 60 61 60 71 77 151 150 149 164 169 180 186 177 169 173 176 174 171 171 169 160 167 172 169 167 167 165 161 157 143 136 131 143 162 192
49 49 44 41 37 35 33 33 37 43 36 38 42 51 109 162 187 184 187 186 177 172 176 183 177 170 170 172 169 163 171 171 168 160 160 162 156 140 137 141 142 150 168
48 46 45 41 38 35 34 34 32 34 31 24 24 36 26 32 212 196 191 187 181 176 178 182 176 170 170 173 175 174 172 174 166 164 167 169 156 150 149 146 154 163 160
50 46 43 41 39 35 31 31 33 32 25 19 22 34 28 18 18 350 196 179 173 176 179 178 175 175 176 178 180 179 177 177 175 174 169 169 156 154 154 157 165 168 165
47 44 41 38 33 31 29 26 28 26 20 19 21 27 24 15 6 9 28 113 164 165 174 177 181 180 180 180 180 179 178 179 179 176 173 168 162 168 162 162 167 167 162
44 40 37 34 29 27 25 22 20 18 16 17 20 21 14 9 5 6 13 15 106 162 177 182 184 179 179 179 178 176 177 176 174 171 169 167 170 173 167 167 171 165 163
41 36 32 27 24 23 20 18 15 12 10 15 16 12 7 6 7 7 7 6 11 149 177 178 181 179 180 183 178 176 175 169 161 154 154 156 157 160 163 165 167 164 169
38 33 28 24 19 17 12 8 7 6 8 9 6 3 4 4 3 359 355 354 347 317 212 201 193 192 195 187 185 178 174 169 164 162 155 147 145 155 160 161 163 167 175
32 26 20 16 13 10 7 2 356 358 4 4 360 358 357 356 351 345 341 332 320 297 253 224 207 205 198 189 189 185 172 169 169 165 160 161 168 162 153 161 159 163 171
22 15 10 5 3 3 1 353 352 355 358 358 356 354 350 344 340 336 326 315 307 286 268 251 226 210 203 196 191 183 170 164 166 167 168 166 164 169 164 162 161 165 172
18 7 358 354 354 357 356 352 349 351 353 349 346 341 337 330 326 320 312 307 300 288 276 265 245 228 212 199 194 182 166 168 174 173 174 171 173 184 180 168 163 165 171
13 1 352 351 351 348 351 349 340 342 339 333 327 323 320 315 310 304 298 291 283 273 268 261 250 233 222 209 203 190 177 177 179 179 185 190 188 190 186 174 170 179 182
0 353 345 339 335 336 339 329 324 322 316 314 310 308 307 303 296 294 288 279 274 269 257 251 248 238 226 215 211 204 193 186 184 187 189 195 198 196 193 187 182 191 173
346 345 336 323 322 325 323 312 304 302 307 309 307 305 303 300 298 291 287 276 264 261 256 251 251 243 229 220 217 215 212 198 190 192 188 191 196 196 196 194 192 191 172
333 334 322 312 313 318 319 310 305 310 310 306 301 298 299 297 294 288 284 281 269 260 256 249 248 246 233 224 225 224 221 212 201 192 190 190 195 194 196 198 194 186 166
317 316 312 308 308 311 310 301 302 305 302 300 300 298 297 296 294 290 281 271 264 263 259 254 252 248 236 224 216 219 222 218 208 194 193 191 191 185 187 191 193 177 174
308 308 302 297 297 302 301 300 299 299 295 292 291 294 291 289 288 283 276 274 261 261 265 256 250 248 244 234 228 223 218 209 197 173 166 169 171 180 181 181 178 177 182
305 301 297 295 296 299 297 297 297 294 291 291 292 289 288 285 283 285 286 277 273 278 276 271 266 261 255 253 243 235 232 223 205 188 183 187 188 189 188 188 188 189 191